Regional Weather Roundup
Issued by NWS State College, PA

Home | Current Version | Previous Version | Text Only | Print | Product List | Glossary Off
Versions: 1 2 3 4 5 6 7 8 9 10 11 12 13 14 15 16 17 18 19 20 21 22 23 24 25 26 27 28 29 30 31 32 33 34 35 36 37 38 39 40 41 42 43 44 45 46 47 48 49 50

000
ASUS41 KCTP 212203
RWRCTP

REGIONAL WEATHER ROUNDUP
NATIONAL WEATHER SERVICE STATE COLLEGE PA
600 PM EDT MON AUG 21 2017

Note: "fair" indicates few or no clouds below 12,000 feet with no
significant weather and/or obstructions to visibility.

* = STATION THAT DOES NOT REPORT PRECIPITATION /E.G. RAIN...SNOW...ETC/
    THUNDER OR FOG.

PAZ002>004-007>009-013>016-020>023-029>032-212300-
WESTERN PENNSYLVANIA

CITY           SKY/WX    TMP DP  RH WIND       PRES   REMARKS
ERIE           SUNNY     81  68  64 NW3       30.07F
MEADVILLE      CLOUDY    83  67  58 SW7       30.11F
FRANKLIN*      CLOUDY    81  66  61 SW6       30.14R THUNDER
NEW CASTLE     FAIR      84  72  67 VRB5      30.11F
BEAVER COUNTY  NOT AVBL
BUTLER*        MOSUNNY   82  71  69 SW9       30.13S
PITTSBURGH INT PTSUNNY   83  72  69 SW8       30.12F
PITTSBURGH     MOSUNNY   83  68  60 SW13      30.13S
INDIANA*       MOSUNNY   82  73  74 SW12      30.17S
LATROBE        MOSUNNY   82  72  69 SW9       30.14F
WASHINGTON CO* MOSUNNY   82  72  69 SW8       30.14F
$$

PAZ004>006-010>012-017>019-024>028-033>037-041-042-045-046-049>053-212300-
CENTRAL PENNSYLVANIA

CITY           SKY/WX    TMP DP  RH WIND       PRES   REMARKS
BRADFORD       SUNNY     82  58  43 W8        30.15F
DUBOIS         MOSUNNY   75  65  70 CALM      30.14F
CLEARFIELD     LGT RAIN  81  67  62 SW8       30.14S
JOHNSTOWN      PTSUNNY   79  66  64 W9        30.19F
ALTOONA        CLOUDY    81  69  67 SW6       30.16S
STATE COLLEGE  MOSUNNY   81  70  69 SW5       30.12F
WILLIAMSPORT   MOSUNNY   78  71  79 SE5       30.09F
SELINSGROVE    MOSUNNY   78  72  81 CALM      30.10F
FT INDIANTOWN  PTSUNNY   80  73  78 SW6       30.09F
CAPITAL CITY   PTSUNNY   87  72  60 S5        30.08F
HARRISBURG     CLOUDY    86  76  71 SW5       30.07F HX  96
YORK           CLOUDY    85  74  69 CALM      30.10F
$$

PAZ038>040-043-044-047-048-054-055-060>062-067>071-212300-
EASTERN PENNSYLVANIA

CITY           SKY/WX    TMP DP  RH WIND       PRES   REMARKS
SCRANTON       CLOUDY    82  71  69 SW8       30.11F
MOUNT POCONO   CLOUDY    75  69  81 SW9       30.18F
ALLENTOWN      CLOUDY    85  70  60 SW9       30.11F
QUAKERTOWN*    PTCLDY    82  72  69 SW6       30.13F
READING        PTSUNNY   82  74  76 S7        30.10F
LANCASTER      TSTM      79  76  90 NW13      30.11F FOG
COATESVILLE    CLEAR     81  73  78 VRB3      30.15F
POTTSTOWN      MOSUNNY   82  70  66 S5        30.13F
BLUE BELL      SUNNY     81  70  69 S6        30.13F
DOYLESTOWN     SUNNY     82  70  66 S8        30.12F
WILLOW GROVE   NOT AVBL
NORTH PHILA    MOSUNNY   85  68  56 S8        30.13F
PHILADELPHIA   MOSUNNY   84  69  60 S8        30.12F
$$



USA.gov is the U.S. government's official web portal to all federal, state and local government web resources and services.